Home > Time Zones > World Clock > Weather > U.S.A. > Adak > Past weeks

Flag for U.S.A. Weather past 2 weeks in Adak, Alaska, U.S.A.

Now
34 °F

Overcast.


Feels Like: 24 °F
Forecast: 32 / 39 °F
Wind: 14 mph from North

Location: Adak

Current Time: Feb 1, 2015 at 7:03:23 AM

Latest Report: Feb 1, 2015 at 6:36 AM


Visibility: 10 mi

Pressure: 30.15 "Hg

Humidity: 70%

Dew point: 25 °F

Location of AdakLocation

Historic Weather in Adak — Graph

°F

Adak temperature yesterday

Maximum temperature yesterday: 36 °F (at 12:16 AM)
Minimum temperature yesterday: 32 °F (at 11:56 PM)
Average temperature yesterday: 34 °F

Past Weeks' High & Low Weather Summary

 TemperatureHumidityPressure
High43 °F (Jan 19, 2:16 PM)93% (Jan 17, 10:16 AM)30.53 "Hg (Jan 17, 10:16 AM)
Low27 °F (Jan 18, 9:36 AM)51% (Jan 28, 3:36 PM)29.07 "Hg (Jan 21, 5:16 AM)
Average36 °F69%29.74 "Hg
* Reported Jan 17 5:16 AM — Feb 1 5:56 AM, Adak, Weather by CustomWeather, © 2014

Note: Actual official high and low records may vary slightly from our data, if they occured in-between our weather recording intervals... More about our weather records

Advertising

Adak weather history for previous 24 hours

 ConditionsComfort  
Time TempWeatherWind HumidityBarometerVisibility
5:56 AM
Feb 1
34 °FOvercast.15 mph70%30.14 "Hg10 mi
5:36 AM32 °FMostly cloudy.16 mph80%30.14 "Hg7 mi
5:16 AM34 °FOvercast.17 mph75%30.14 "Hg9 mi
4:56 AM34 °FOvercast.10 mph70%30.14 "Hg10 mi
4:36 AM34 °FOvercast.16 mph75%30.14 "Hg5 mi
4:16 AM34 °FMostly cloudy.9 mph75%30.14 "Hg10 mi
3:56 AM34 °FMostly cloudy.12 mph75%30.15 "Hg10 mi
3:36 AM32 °FMostly cloudy.10 mph80%30.15 "Hg5 mi
3:16 AM32 °FMostly cloudy.12 mph80%30.15 "Hg4 mi
2:56 AM34 °FMostly cloudy.16 mph75%30.15 "Hg3 mi
2:36 AM34 °FMostly cloudy.15 mph75%30.15 "Hg10 mi
2:16 AM32 °FMostly cloudy.17 mph80%30.14 "Hg10 mi
1:56 AM32 °FPartly cloudy.21 mph80%30.14 "Hg5 mi
1:36 AM34 °FMostly cloudy.24 mph81%30.14 "Hg5 mi
1:16 AM34 °FMostly cloudy.23 mph75%30.14 "Hg9 mi
12:56 AM32 °FMostly cloudy.21 mph80%30.14 "Hg7 mi
12:36 AM32 °FMostly cloudy.18 mph80%30.14 "Hg8 mi
12:16 AM34 °FMostly cloudy.20 mph75%30.13 "Hg3 mi
11:56 PM
Jan 31
32 °FOvercast.22 mph80%30.14 "Hg5 mi
11:36 PM34 °FOvercast.18 mph75%30.14 "Hg7 mi
11:16 PM34 °FPassing clouds.17 mph75%30.14 "Hg10 mi
10:56 PM34 °FPassing clouds.16 mph75%30.14 "Hg10 mi
10:36 PM34 °FPassing clouds.18 mph75%30.14 "Hg9 mi
10:16 PM34 °FPartly cloudy.15 mph75%30.14 "Hg10 mi
9:56 PM34 °FMostly cloudy.15 mph75%30.15 "Hg5 mi
9:36 PM34 °FOvercast.16 mph75%30.15 "Hg10 mi
9:16 PM34 °FMostly cloudy.13 mph75%30.15 "Hg10 mi
8:56 PM34 °FMostly cloudy.13 mph75%30.15 "Hg10 mi
8:36 PM34 °FMostly cloudy.13 mph75%30.15 "Hg10 mi
8:16 PM34 °FOvercast.13 mph75%30.15 "Hg10 mi
7:56 PM34 °FOvercast.14 mph75%30.15 "Hg10 mi
7:36 PM34 °FOvercast.16 mph75%30.15 "Hg10 mi
7:16 PM34 °FOvercast.14 mph75%30.15 "Hg10 mi
6:56 PM34 °FMostly cloudy.17 mph75%30.14 "Hg10 mi
6:36 PM34 °FMostly cloudy.17 mph75%30.14 "Hg2 mi
6:16 PM34 °FOvercast.18 mph75%30.13 "Hg10 mi
5:56 PM34 °FOvercast.15 mph75%30.13 "Hg10 mi
5:16 PM34 °FOvercast.17 mph75%30.14 "Hg10 mi
4:56 PM34 °FOvercast.15 mph75%30.14 "Hg10 mi
4:36 PM34 °FOvercast.15 mph75%30.14 "Hg10 mi
4:16 PM34 °FOvercast.20 mph70%30.14 "Hg10 mi
3:56 PM34 °FMostly cloudy.16 mph75%30.15 "Hg10 mi
3:36 PM36 °FOvercast.16 mph60%30.15 "Hg10 mi
3:16 PM36 °FOvercast.16 mph65%30.16 "Hg10 mi
2:56 PM36 °FOvercast.14 mph65%30.17 "Hg10 mi
2:36 PM36 °FOvercast.13 mph60%30.17 "Hg10 mi
2:16 PM36 °FOvercast.15 mph65%30.17 "Hg10 mi
1:56 PM36 °FOvercast.14 mph65%30.18 "Hg10 mi
1:36 PM36 °FOvercast.15 mph60%30.19 "Hg10 mi
1:16 PM36 °FOvercast.15 mph65%30.19 "Hg10 mi
12:56 PM36 °FOvercast.15 mph60%30.20 "Hg10 mi
12:36 PM36 °FOvercast.10 mph60%30.20 "Hg10 mi
12:16 PM36 °FOvercast.14 mph60%30.21 "Hg10 mi
11:56 AM36 °FOvercast.12 mph60%30.21 "Hg10 mi
11:36 AM36 °FOvercast.12 mph60%30.21 "Hg10 mi
11:16 AM36 °FOvercast.10 mph60%30.22 "Hg10 mi
10:36 AM36 °FOvercast.8 mph65%30.22 "Hg10 mi
10:16 AM36 °FOvercast.9 mph60%30.22 "Hg10 mi
9:56 AM34 °FOvercast.10 mph65%30.22 "Hg10 mi
9:36 AM34 °FMostly cloudy.9 mph70%30.22 "Hg10 mi
9:16 AM34 °FMostly cloudy.10 mph65%30.22 "Hg10 mi
8:56 AM34 °FOvercast.9 mph65%30.22 "Hg10 mi
8:36 AM34 °FOvercast.9 mph65%30.23 "Hg10 mi
8:16 AM34 °FOvercast.8 mph60%30.23 "Hg10 mi
7:56 AM34 °FOvercast.9 mph60%30.22 "Hg10 mi
7:36 AM34 °FOvercast.9 mph60%30.23 "Hg10 mi
7:16 AM34 °FOvercast.8 mph60%30.23 "Hg10 mi
Weather by CustomWeather, © 2014

See weather overviewHow to use our weather pages